CDT,Max TemperatureF,Mean TemperatureF,Min TemperatureF,Max Dew PointF,MeanDew PointF,Min DewpointF,Max Humidity, Mean Humidity, Min Humidity, Max Sea Level PressureIn, Mean Sea Level PressureIn, Min Sea Level PressureIn, Max VisibilityMiles, Mean VisibilityMiles, Min VisibilityMiles, Max Wind SpeedMPH, Mean Wind SpeedMPH, Max Gust SpeedMPH,PrecipitationIn, CloudCover, Events, WindDirDegrees
2012-9-1,84,74,64,58,51,46,78,47,28,30.13,30.06,30.00,10,10,10,15,7,20,0.00,0,,94
2012-9-2,89,74,61,67,60,52,78,59,48,30.00,29.91,29.82,10,10,10,15,8,,0.00,0,,138
2012-9-3,91,80,70,66,61,49,84,58,25,29.89,29.86,29.83,10,10,10,8,4,,0.00,1,,261
2012-9-4,91,78,66,66,60,44,93,61,20,29.88,29.80,29.74,10,9,6,10,4,17,0.00,0,,235
2012-9-5,82,70,60,59,52,42,90,56,29,29.90,29.81,29.68,10,10,6,16,9,24,0.02,1,Rain-Thunderstorm,303
2012-9-6,82,66,52,57,50,44,86,57,28,29.97,29.91,29.87,10,10,5,9,3,,0.00,3,Rain,179
2012-9-7,71,64,57,55,50,42,83,64,39,30.03,29.96,29.86,10,10,9,18,10,29,0.00,5,,350
2012-9-8,80,62,46,48,45,41,90,59,30,30.03,29.95,29.80,10,10,8,24,9,36,0.00,1,,284
2012-9-9,73,64,54,51,48,46,86,62,38,30.19,30.12,30.05,10,10,8,12,7,17,0.00,0,,354
2012-9-10,84,69,54,49,46,44,75,48,25,30.09,29.95,29.81,10,10,10,21,10,37,0.00,0,,185
2012-9-11,97,82,66,52,50,47,59,38,19,29.81,29.75,29.67,10,10,10,26,15,37,0.00,0,,193
2012-9-12,75,65,55,54,51,45,87,71,42,30.25,30.11,29.83,10,10,9,14,7,22,0.02,5,Rain,261
2012-9-13,75,63,51,52,44,27,100,67,17,30.35,30.29,30.25,10,8,0,8,5,18,0.01,1,Fog,241
2012-9-14,75,60,46,45,40,34,80,47,22,30.33,30.28,30.24,10,10,6,7,4,,0.01,0,,53
2012-9-15,86,69,52,47,42,38,77,43,18,30.23,30.08,29.95,10,10,10,20,8,26,0.00,0,,185
2012-9-16,81,70,60,54,49,42,72,51,34,29.95,29.90,29.85,10,10,8,14,10,20,0.00,0,,250
2012-9-17,64,56,50,52,43,34,94,64,37,30.00,29.97,29.92,10,9,4,16,9,20,0.00,5,Rain,346
2012-9-18,62,52,42,40,35,29,89,55,31,30.04,29.99,29.88,10,10,10,13,5,17,0.00,3,,300
2012-9-19,75,64,50,47,39,32,74,48,28,29.87,29.74,29.65,10,10,10,24,12,34,0.00,2,Rain,235
2012-9-20,66,56,48,40,36,30,66,47,28,29.92,29.88,29.84,10,10,10,22,9,29,0.00,2,,283
2012-9-21,64,54,44,46,40,31,83,59,35,29.89,29.84,29.81,10,10,9,24,7,31,0.00,6,Rain,317
2012-9-22,61,50,42,39,33,26,76,56,30,30.26,30.13,29.92,10,10,9,22,15,29,0.00,5,,325
2012-9-23,61,48,34,35,30,27,89,54,27,30.33,30.26,30.17,10,10,9,12,3,20,0.00,0,,276
2012-9-24,79,58,39,38,32,28,67,41,19,30.14,29.90,29.74,10,10,10,17,8,25,0.00,0,,244
2012-9-25,68,56,46,43,39,35,77,54,32,29.95,29.87,29.76,10,10,6,10,6,,0.00,0,,10
2012-9-26,64,52,39,40,37,33,89,61,33,30.22,30.10,29.95,10,10,8,9,5,,0.00,0,,23
2012-9-27,69,54,41,42,37,33,82,57,27,30.29,30.22,30.17,10,10,6,5,2,,0.00,0,,46
2012-9-28,78,60,44,45,39,32,90,53,19,30.22,30.16,30.09,10,10,8,8,1,,0.00,0,,228
2012-9-29,82,66,50,48,42,37,70,46,27,30.12,30.07,30.00,10,10,8,7,3,,0.00,0,,255
2012-9-30,78,64,50,48,41,37,80,48,24,30.02,29.95,29.88,10,10,9,8,4,,0.00,0,,106